Helicity
187 170 161 163 172 169 175 194 177 121 77 43 67 89 101 113 113 215 287 214 59 99 125 184 257 230 177
169 166 170 164 171 196 192 214 189 141 72 54 75 78 75 84 80 171 279 377 476 359 276 235 214 159 179
169 176 186 191 201 204 193 200 182 156 144 129 96 83 61 47 43 96 130 259 335 408 261 220 215 180 154
163 180 175 169 178 179 168 159 134 121 123 116 102 101 83 91 68 104 173 158 188 201 241 277 218 172 167
157 179 171 168 156 168 174 151 110 91 77 75 57 50 66 78 91 103 114 138 104 113 97 113 148 167 171
150 158 153 149 149 160 175 156 119 79 61 60 52 49 59 72 87 95 105 103 102 86 86 111 126 135 144
120 119 134 128 151 138 134 136 120 81 44 51 52 55 54 57 81 75 77 87 82 85 91 96 101 114 117
99 100 97 106 114 103 114 138 110 68 66 50 54 57 62 60 71 61 54 64 67 72 65 74 94 88 86
108 87 79 83 79 95 119 110 70 42 53 59 56 61 59 53 61 81 42 51 57 63 75 85 85 86 79
88 104 95 105 95 68 63 66 59 51 54 74 52 46 56 51 60 76 80 75 86 74 70 67 71 78 80
77 80 89 85 84 66 59 51 54 51 29 58 60 62 102 89 56 63 64 68 74 94 92 68 61 77 81
68 70 81 70 59 63 64 70 69 44 32 76 68 71 93 103 65 53 46 55 64 63 66 67 67 62 71
70 70 64 68 61 60 63 71 84 83 85 83 79 78 91 60 69 76 70 42 53 60 58 65 71 79 78
75 67 61 56 47 55 69 72 87 82 101 99 79 75 77 69 66 58 52 54 56 67 65 67 75 79 82
78 78 65 71 71 69 86 80 90 76 89 78 75 85 85 87 79 78 81 86 89 84 76 66 64 74 78
67 61 49 54 66 74 83 85 80 81 70 70 82 91 84 62 71 95 88 90 96 87 79 74 50 78 79
67 63 64 70 67 64 76 80 69 75 77 98 98 103 90 100 105 40 113 112 118 105 106 103 84 91 78
Wind_Speed
47 47 44 41 42 40 40 40 38 39 41 44 43 44 43 42 42 42 35 25 8 10 13 16 14 7 4
46 44 42 40 38 36 35 36 36 40 38 38 37 39 39 39 36 33 29 22 17 13 14 12 3 2 6
41 38 38 35 34 34 32 32 36 39 41 40 35 36 36 34 30 27 24 20 15 11 6 6 7 8 10
39 37 37 35 31 31 31 32 34 36 37 35 32 34 33 32 30 28 25 24 21 19 16 13 12 13 15
37 35 34 33 30 29 31 31 33 32 30 30 29 31 32 31 31 32 30 27 26 25 24 23 23 24 25
38 36 31 32 32 29 29 29 34 26 25 27 26 27 31 33 34 34 33 30 33 31 32 31 28 28 26
36 31 31 27 26 26 26 28 28 25 20 22 26 24 24 28 34 32 31 34 34 33 34 32 26 26 26
33 33 32 30 20 24 23 23 26 23 22 27 23 25 28 31 34 32 26 26 28 30 30 27 25 26 28
34 32 31 27 22 23 21 16 21 22 18 27 23 17 24 23 24 28 19 25 24 26 26 26 24 23 26
34 34 30 27 24 23 19 13 21 24 20 19 21 19 23 25 25 27 27 26 28 27 28 28 27 28 27
32 32 29 28 28 27 22 17 17 26 24 17 20 17 30 30 26 26 28 28 28 28 31 31 29 33 33
31 31 29 28 27 24 25 25 27 27 17 19 24 22 25 29 31 28 29 28 29 31 33 32 31 31 34
32 31 29 27 24 24 24 24 25 25 22 24 28 26 30 32 35 33 31 31 28 31 33 33 34 34 33
30 28 26 25 23 23 25 24 26 28 29 31 30 31 37 38 38 36 34 37 30 30 36 36 37 36 37
29 28 27 25 25 23 25 24 29 31 30 31 32 36 40 42 41 40 39 38 36 35 35 39 37 35 36
27 26 27 26 25 26 29 31 32 32 31 29 33 40 45 46 33 41 40 41 38 36 38 44 47 41 41
26 25 24 26 24 27 27 27 30 33 35 33 35 40 46 50 44 25 41 41 41 43 41 41 49 47 43
Wind_Direction
322 324 322 323 324 325 325 325 327 331 331 332 332 328 328 330 336 330 330 333 40 115 134 133 139 152 247
322 323 324 326 327 327 329 330 330 331 335 336 336 331 326 326 329 334 339 350 19 74 102 111 124 217 308
326 330 329 329 329 329 328 328 329 330 332 333 333 329 325 320 327 328 336 341 357 347 350 339 305 292 310
325 326 328 330 327 323 322 324 324 328 329 329 329 325 321 315 312 311 313 313 313 312 310 319 311 305 308
325 324 324 324 320 323 320 322 322 324 325 325 326 321 316 312 307 300 299 297 293 290 291 294 295 297 298
326 323 324 323 323 321 321 321 319 323 322 320 325 321 314 306 301 295 291 296 284 287 286 288 293 293 296
329 330 330 327 327 323 320 319 320 326 326 323 319 322 327 317 302 303 300 287 284 286 285 288 293 293 293
334 332 332 336 335 330 327 328 327 325 325 316 327 322 311 303 302 300 308 303 295 290 288 288 294 293 292
341 336 333 336 338 336 331 330 326 324 324 319 327 340 319 317 319 313 327 302 298 293 293 292 297 300 296
342 341 341 339 338 334 331 324 323 324 326 321 323 333 326 315 313 311 304 302 296 294 293 293 291 294 299
337 337 341 336 330 329 331 327 323 318 326 324 325 331 312 315 310 304 299 300 299 297 294 293 294 293 293
331 330 333 333 330 332 325 321 315 315 331 325 324 314 310 311 307 303 298 300 299 295 293 297 300 300 297
324 325 328 329 331 328 327 324 322 319 321 317 309 307 303 307 303 299 300 300 299 297 297 298 300 300 300
326 326 328 324 322 321 317 317 314 312 313 308 303 302 297 295 297 300 298 296 303 301 298 301 301 301 298
324 322 319 319 315 315 314 315 309 307 306 304 302 301 297 293 295 295 295 294 297 301 302 303 305 305 301
324 324 320 317 314 311 306 305 304 303 303 305 301 299 297 295 293 296 296 294 296 298 300 302 304 306 302
320 322 320 316 313 308 307 307 304 303 300 301 299 297 295 294 301 294 294 296 295 294 297 300 304 308 304